This is the latest recevied weather packets stored in our database for station/object K3HM. If no packets are shown the sender has not sent any weather packets the latest 1 day(s).
| Time | Temp. | Humidity | Pressure | Rain* | Wind** | Luminosity | Snow |
|---|---|---|---|---|---|---|---|
| 1778077318 | 13.33° C | 95% | 1007.9 hPa | 0 mm | - | 50 W/m² | - |
| 1778075805 | 13.33° C | 98% | 1008 hPa | 0 mm | - | 58 W/m² | - |
| 1778074893 | 12.78° C | 98% | 1008.4 hPa | 0 mm | - | 42 W/m² | - |
| 1778074591 | 12.78° C | 98% | 1008.4 hPa | 0 mm | - | 40 W/m² | - |
| 1778074288 | 12.78° C | 97% | 1008.2 hPa | 0 mm | - | 64 W/m² | - |
| 1778073380 | 12.78° C | 97% | 1008.7 hPa | 0 mm | - | 44 W/m² | - |
| 1778072773 | 12.78° C | 97% | 1008.6 hPa | 1.27 mm | - | 36 W/m² | - |
| 1778071866 | 12.78° C | 96% | 1008.7 hPa | 0 mm | - | 20 W/m² | - |
| 1778071261 | 12.78° C | 95% | 1008.6 hPa | 0 mm | - | 23 W/m² | - |
| 1778070657 | 12.78° C | 95% | 1008.7 hPa | 0 mm | - | 26 W/m² | - |
| 1778070353 | 12.78° C | 95% | 1008.7 hPa | 0 mm | - | 25 W/m² | - |
| 1778069444 | 12.22° C | 95% | 1008.4 hPa | 0 mm | - | 39 W/m² | - |
| 1778069143 | 12.22° C | 95% | 1008.5 hPa | 0 mm | - | 33 W/m² | - |
| 1778068236 | 12.22° C | 95% | 1008.7 hPa | 0 mm | - | 70 W/m² | - |
| 1778067933 | 12.22° C | 96% | 1008.6 hPa | 0 mm | - | 55 W/m² | - |
| 1778067329 | 11.67° C | 97% | 1008.5 hPa | 0 mm | - | 56 W/m² | - |
| 1778066420 | 11.11° C | 98% | 1008.7 hPa | 0 mm | - | 11 W/m² | - |
| 1778066118 | 11.11° C | 98% | 1008.8 hPa | 0 mm | - | 12 W/m² | - |
| 1778064603 | 11.11° C | 97% | 1008.8 hPa | 3.05 mm | - | 3 W/m² | - |
| 1778063695 | 11.11° C | 97% | 1008.9 hPa | 0 mm | - | 2 W/m² | - |
| 1778063392 | 11.11° C | 97% | 1009 hPa | 1.78 mm | - | 3 W/m² | - |
| 1778063090 | 11.11° C | 97% | 1008.9 hPa | 1.78 mm | - | 4 W/m² | - |
| 1778062181 | 11.11° C | 95% | 1008.9 hPa | 0 mm | - | 0 W/m² | - |
| 1778061577 | 11.67° C | 94% | 1008.9 hPa | 1.78 mm | - | 0 W/m² | - |
| 1778060670 | 11.67° C | 94% | 1009 hPa | 0 mm | - | 0 W/m² | - |
* Rain latest hour (hover to see other rain measurements)
** Current wind speed in m/s (hover to see current wind gust speed)